Location: DARK SKY Beskydy - Park tmavé oblohy, www.darkskybeskydy.cz
(49.4926°N, 18.5016°E)
Time: 03:21:34
(UTC+01:00)

N. Korean satellite - Pass Details

Date: 15 December 2022
Orbit: 407 x 442 km, 97.3° (Epoch: 05 February)

Event Time Altitude Azimuth Distance (km) Brightness Sun altitude
Rises 06:34:59 0° 354° (N) 2,480 9.9 -9.3°
Reaches altitude 10° 06:38:11 10° 321° (NW) 1,586 8.6 -8.8°
Enters shadow 06:38:59 11° 307° (NW) 1,493 8.4 -8.7°
Exits shadow 06:42:01 - 260° (W) 1,866 9.0 -8.2°
Sets 06:43:45 0° 245° (WSW) 2,416 9.7 -8.0°
